KB7YYZ Weather Reports


time (UTC)temp
C
wind
direction
speed
KPH
gust
KPH
rain 1hr
cm
rain 24hr
cm
rain mn
cm
humidity
%
barometer
mb
20260905145538 29 153 1.6 1.6 0.00 0.00 0.00 54 1010.6
20260905144535 29 146 1.6 1.6 0.00 0.00 0.00 54
20260905143543 28 205 0.0 0.0 0.00 0.00 0.00 54 1010.6
20260905142527 28 180 0.0 0.0 0.00 0.00 0.00 55 1010.5
20260905141520 28 0.0 0.0 0.00 0.00 0.00 55 1010.4
20260905140527 27 0.0 0.0 0.00 0.00 0.00 56 1010.3
20260905135525 27 0.0 0.0 0.00 0.00 0.00 56 1010.2
20260905134522 27 0.0 0.0 0.00 0.00 0.00 56 1010.0
20260905133520 26 0.0 0.0 0.00 0.00 0.00 56 1009.9
20260905132531 26 0.0 0.0 0.00 0.00 0.00 56 1009.8
20260905131531 26 0.0 0.0 0.00 0.00 0.00 56 1009.6
20260905130704 27 0.0 0.0 0.00 0.00 0.00 56 1009.6
20260905125522 27 0.0 0.0 0.00 0.00 0.00 55 1009.5
20260905124542 27 0.0 0.0 0.00 0.00 0.00 55 1009.5
20260905123527 27 0.0 0.0 0.00 0.00 0.00 55 1009.4
20260905122528 27 0.0 0.0 0.00 0.00 0.00 55 1009.3
20260905121539 27 0.0 0.0 0.00 0.00 0.00 55 1009.2
20260905120545 27 0.0 0.0 0.00 0.00 0.00 55 1009.2
20260905115555 27 0.0 0.0 0.00 0.00 0.00 54 1009.1
20260905114524 27 0.0 0.0 0.00 0.00 0.00 54 1009.2
20260905113525 27 0.0 0.0 0.00 0.00 0.00 54 1009.1
20260905112539 27 0.0 0.0 0.00 0.00 0.00 54 1009.1
20260905111536 28 0.0 0.0 0.00 0.00 0.00 54 1009.1
20260905110554 28 0.0 0.0 0.00 0.00 0.00 54 1009.1
20260905105521 28 0.0 0.0 0.00 0.00 0.00 54 1008.9
20260905104521 28 0.0 0.0 0.00 0.00 0.00 54 1009.0
20260905103547 28 0.0 0.0 0.00 0.00 0.00 54 1009.0
20260905102525 28 0.0 0.0 0.00 0.00 0.00 54 1009.0
20260905101524 28 0.0 0.0 0.00 0.00 0.00 54 1009.0
20260905100522 28 0.0 0.0 0.00 0.00 0.00 54 1009.0
20260905095519 28 0.0 0.0 0.00 0.00 0.00 53 1009.1
20260905094530 28 0.0 0.0 0.00 0.00 0.00 53 1009.0
20260905093521 28 0.0 0.0 0.00 0.00 0.00 53 1009.0
20260905092545 28 0.0 0.0 0.00 0.00 0.00 52 1009.1
20260905091539 29 0.0 0.0 0.00 0.00 0.00 51 1009.1
20260905090521 29 0.0 0.0 0.00 0.00 0.00 51 1009.1
20260905085530 29 0.0 0.0 0.00 0.00 0.00 51 1009.0
20260905084534 29 0.0 0.0 0.00 0.00 0.00 51 1009.1
20260905083521 29 0.0 0.0 0.00 0.00 0.00 52 1009.2
20260905082556 29 0.0 0.0 0.00 0.00 0.00 51 1009.1
20260905081542 30 0.0 0.0 0.00 0.00 0.00 50 1009.4
20260905080547 30 0.0 0.0 0.00 0.00 0.00 50 1009.4
20260905075531 30 0.0 0.0 0.00 0.00 0.00 49 1009.5
20260905074534 30 0.0 0.0 0.00 0.00 0.00 49 1009.5
20260905073534 30 0.0 0.0 0.00 0.00 0.00 49 1009.4
20260905072532 30 0.0 0.0 0.00 0.00 0.00 48 1009.2
20260905071524 30 0.0 0.0 0.00 0.00 0.00 48 1009.2
20260905070529 31 0.0 0.0 0.00 0.00 0.00 48 1009.1
20260905065527 31 178 0.0 0.0 0.00 0.00 0.00 47 1009.1
20260905064613 31 33 0.0 0.0 0.00 0.00 0.00 47 1009.1
20260905063524 31 0.0 0.0 0.00 0.00 0.00 46 1009.1
20260905062539 31 0.0 0.0 0.00 0.00 0.00 46 1009.1
20260905061546 31 164 0.0 0.0 0.00 0.00 0.00 45 1009.1
20260905060531 31 89 0.0 1.6 0.00 0.00 0.00 45 1009.0
20260905055526 31 0.0 0.0 0.00 0.00 0.00 45 1008.9
20260905054543 31 0.0 0.0 0.00 0.00 0.00 45 1008.9
20260905053550 31 0.0 0.0 0.00 0.00 0.00 45 1008.7
20260905052522 31 0.0 0.0 0.00 0.00 0.00 44 1008.6
20260905051528 32 0.0 0.0 0.00 0.00 0.00 43 1008.6
20260905050524 32 0.0 0.0 0.00 0.00 0.00 43 1008.5
20260905045541 32 0.0 0.0 0.00 0.00 0.00 43 1008.5
20260905044536 32 0.0 0.0 0.00 0.00 0.00 42 1008.5
20260905043519 32 0.0 0.0 0.00 0.00 0.00 42 1008.5
20260905042525 32 0.0 0.0 0.00 0.00 0.00 42 1008.5
20260905041522 32 0.0 0.0 0.00 0.00 0.00 42 1008.5
20260905040538 33 0.0 0.0 0.00 0.00 0.00 41 1008.5
20260905035535 33 0.0 0.0 0.00 0.00 0.00 41 1008.4
20260905034546 33 0.0 0.0 0.00 0.00 0.00 40 1008.3
20260905033542 33 0.0 0.0 0.00 0.00 0.00 39 1008.3
20260905032548 33 0.0 0.0 0.00 0.00 0.00 38 1008.1
20260905031546 33 0.0 0.0 0.00 0.00 0.00 36 1007.9
20260905030524 33 0.0 0.0 0.00 0.00 0.00 36 1007.7
20260905025522 34 254 0.0 0.0 0.00 0.00 0.00 36 1007.6
20260905024519 34 247 0.0 0.0 0.00 0.00 0.00 35
20260905023526 34 266 0.0 1.6 0.00 0.00 0.00 35 1007.3
20260905022532 34 203 0.0 1.6 0.00 0.00 0.00 34 1007.2
20260905021537 34 0.0 0.0 0.00 0.00 0.00 34 1007.1
20260905020519 34 0.0 0.0 0.00 0.00 0.00 33 1007.0
20260905015534 35 0.0 0.0 0.00 0.00 0.00 33 1007.0
20260905014543 35 269 0.0 0.0 0.00 0.00 0.00 32 1006.9
20260905013525 35 298 1.6 1.6 0.00 0.00 0.00 31 1006.9
20260905012535 35 301 1.6 1.6 0.00 0.00 0.00 31 1006.9
20260905011540 35 313 1.6 1.6 0.00 0.00 0.00 31 1006.8
20260905010531 36 306 1.6 1.6 0.00 0.00 0.00 31 1006.8
20260905005520 36 294 0.0 1.6 0.00 0.00 0.00 30 1006.8
20260905004523 36 288 1.6 1.6 0.00 0.00 0.00 30 1006.8
20260905003532 36 333 3.2 3.2 0.00 0.00 0.00 30 1006.7
20260905002558 36 295 3.2 3.2 0.00 0.08 0.00 30 1006.6
20260905001528 36 328 3.2 3.2 0.00 0.08 0.00 30 1006.5
20260905000530 36 327 1.6 1.6 0.00 0.08 0.00 31 1006.5
20260904235543 36 334 3.2 3.2 0.00 0.08 0.00 30 1006.5
20260904234550 36 285 1.6 1.6 0.00 0.08 0.00 32 1006.6
20260904233525 37 266 1.6 1.6 0.00 0.08 0.00 32 1006.7
20260904232524 37 329 1.6 1.6 0.00 0.08 0.00 32 1006.7
20260904231600 37 327 3.2 3.2 0.00 0.08 0.00 32 1006.8
20260904230520 37 306 3.2 3.2 0.00 0.08 0.00 32 1006.9
20260904225525 37 326 3.2 3.2 0.00 0.08 0.00 32 1006.9
20260904224532 37 321 3.2 4.8 0.00 0.08 0.00 31 1007.0
20260904223521 37 322 1.6 3.2 0.00 0.08 0.00 32 1007.0
20260904222556 37 1 3.2 4.8 0.00 0.08 0.00 31 1007.1
20260904221551 37 7 3.2 3.2 0.00 0.08 0.00 30 1007.1
20260904220523 37 32 3.2 3.2 0.00 0.08 0.00 30 1007.3
20260904215529 37 358 3.2 3.2 0.00 0.08 0.00 31 1007.4
20260904214535 37 304 3.2 3.2 0.00 0.08 0.00 32 1007.5
20260904213533 37 359 1.6 3.2 0.00 0.08 0.00 31 1007.7
20260904212602 37 351 1.6 1.6 0.00 0.08 0.00 33 1007.8
20260904211520 37 279 1.6 1.6 0.00 0.08 0.00 34 1008.0
20260904210527 37 275 3.2 3.2 0.00 0.08 0.00 35 1008.1
20260904205532 37 250 1.6 1.6 0.00 0.08 0.00 36 1008.1
20260904204550 36 261 1.6 3.2 0.00 0.08 0.00 35 1008.2
20260904203531 37 233 1.6 1.6 0.00 0.08 0.00 36 1008.4
20260904202521 36 264 1.6 1.6 0.00 0.08 0.00 36 1008.5
20260904201523 36 239 1.6 1.6 0.00 0.08 0.00 37 1008.7
20260904200526 36 354 1.6 3.2 0.00 0.08 0.00 36 1008.8
20260904195524 36 326 1.6 3.2 0.00 0.08 0.00 36 1008.9
20260904194521 36 29 1.6 3.2 0.00 0.08 0.00 36 1009.0
20260904193519 36 349 1.6 1.6 0.00 0.08 0.00 36 1009.2
20260904192520 36 284 1.6 1.6 0.00 0.08 0.00 37 1009.4
20260904191526 36 345 1.6 1.6 0.00 0.08 0.00 39 1009.6
20260904190524 35 233 0.0 1.6 0.00 0.08 0.00 40 1009.7
20260904185538 35 320 1.6 1.6 0.00 0.08 0.00 41 1009.7
20260904184544 35 252 1.6 1.6 0.00 0.08 0.00 42 1009.8
20260904183529 34 205 1.6 1.6 0.00 0.08 0.00 44 1009.9
20260904182523 34 185 1.6 1.6 0.00 0.08 0.00 46 1010.1
20260904181521 34 266 1.6 1.6 0.00 0.08 0.00 46 1010.2
20260904180544 33 156 1.6 1.6 0.00 0.08 0.00 48 1010.2
20260904175542 33 192 1.6 1.6 0.00 0.08 0.00 48 1010.4
20260904174528 33 184 1.6 1.6 0.00 0.08 0.00 49 1010.6
20260904173521 33 351 1.6 1.6 0.00 0.08 0.00 50 1010.7
20260904172529 32 211 3.2 3.2 0.00 0.08 0.00 51 1010.8
20260904171535 32 133 3.2 3.2 0.00 0.08 0.00 50 1010.8
20260904170532 32 222 3.2 3.2 0.00 0.08 0.00 51 1010.9
20260904165522 32 190 3.2 3.2 0.00 0.08 0.00 52 1010.8
20260904164528 31 178 3.2 3.2 0.00 0.08 0.00 52 1010.8
20260904163544 31 167 3.2 3.2 0.00 0.08 0.00 52 1010.7
20260904162525 31 223 3.2 3.2 0.00 0.08 0.00 53 1010.6
20260904161522 31 195 3.2 3.2 0.00 0.08 0.00 53 1010.6
20260904160541 30 115 3.2 3.2 0.00 0.08 0.00 53 1010.6
20260904155534 30 236 3.2 3.2 0.00 0.08 0.00 53 1010.6
20260904154520 30 149 3.2 3.2 0.00 0.08 0.00 54 1010.5
20260904153526 30 177 3.2 3.2 0.00 0.08 0.00 54 1010.5
20260904152532 30 157 1.6 3.2 0.00 0.08 0.00 55 1010.5
20260904151539 29 91 3.2 3.2 0.00 0.08 0.00 55 1010.4
20260904150531 29 191 3.2 3.2 0.00 0.08 0.00 55 1010.4